Location: Passau
(48.5830°N, 13.4830°E)
Time: 21:18:40
(UTC+02:00)

Envisat - Pass Details

Date: 19 April 2024
Orbit: 762 x 764 km, 98.3° (Epoch: 29 May)

Event Time Altitude Azimuth Distance (km) Brightness Sun altitude
Rises 04:53:34 0° 12° (NNE) 3,241 7.0 -11.8°
Reaches altitude 10° 04:55:53 10° 10° (N) 2,310 6.1 -11.5°
Maximum altitude 05:00:57 69° 288° (WNW) 820 3.0 -10.8°
Drops below altitude 10° 05:05:57 10° 206° (SSW) 2,292 5.0 -10.1°
Enters shadow 05:06:35 - 205° (SSW) 2,539 5.2 -10.0°
